Вернуться в каталог

STARLINK-32716

АктивенСвязьVLEO
NORAD 63031·PAYLOAD·🇺🇸 United States

Запущен Feb 18, 2025 с Cape Canaveral Space Force Station

Loading…

Ближайшие Пролёты (ближайшие 24 часа)

TLE

СвежийSource: CelesTrak SupGP

Эпоха: Sep 15, 2026, 03:00 UTC

1 63031C 25034C   26258.12548611 -.00012722  00000+0 -37591-3 0  2589
2 63031  53.1574  94.5353 0001274  83.9396 223.5368 15.34394511    17

Отслеживайте STARLINK-32716 в реальном времени с AllMySat

Download on the App Store